Printer-friendly version

IAU Minor Planet Center

Minor Planet Center

MPEC 1994-G06: 1994 GV

The following Minor Planet Electronic Circular may be linked-to from your own Web pages, but must not otherwise be redistributed electronically.


Read MPEC 1994-G05 Read MPEC 1994-H01


M.P.E.C. 1994-G06                                Issued 1994 Apr. 14, 22:19 UT

     The Minor Planet Electronic Circulars contain information on unusual
         minor planets and routine data on comets.  They are published
   on behalf of Commission 20 of the International Astronomical Union by the
          Minor Planet Center, Smithsonian Astrophysical Observatory,
                          Cambridge, MA 02138, U.S.A.

          MARSDEN@CFA or WILLIAMS@CFA (.HARVARD.EDU, .SPAN or .BITNET)

                                    1994 GV

Discovered 1994 Apr. 13 by Spacewatch.

Available observations:
     J94G00V* C1994 04 13.27739 12 59 52.26 -09 58 27.0          18.0 V      691
     J94G00V  C1994 04 13.28311 13 00 21.77 -10 01 41.2          17.6 V      691
     J94G00V  C1994 04 13.28963 13 00 55.45 -10 05 22.8          17.7 V      691
     J94G00V  C1994 04 13.29683 13 01 32.16 -10 09 23.8          17.8 V      691
     J94G00V IC1994 04 13.30353 13 02 06.02 -10 13 05.6          17.8 V      691
     J94G00V  C1994 04 13.31135 13 02 45.80 -10 17 24.2          17.7 V      691
     J94G00V  C1994 04 13.32080 13 03 33.07 -10 22 33.1          17.6 V      691
     J94G00V  C1994 04 13.34541 13 05 35.76 -10 35 44.0          17.6 V      691
     J94G00V  C1994 04 13.35484 13 06 22.12 -10 40 39.1          17.6 V      691
     J94G00V  C1994 04 13.40303 13 10 17.42 -11 05 18.8          17.5 V      691
     J94G00V  C1994 04 13.43644 13 12 57.49 -11 21 37.3          17.6 V      691
     J94G00V  C1994 04 13.44252 13 13 26.79 -11 24 33.2          17.7 V      691
     J94G00V  C1994 04 14.25615 14 06 52.23 -16 10 22.2          18.4 V      691
     J94G00V  C1994 04 14.27240 14 07 36.24 -16 14 23.7          18.6 V      691
     J94G00V  C1994 04 14.32923 14 10 06.00 -16 27 54.0          18.8 V      691
     J94G00V  C1994 04 14.37211 14 11 55.00 -16 37 27.5                      691
     J94G00V  C1994 04 14.40125 14 13 08.55 -16 43 41.3          18.8 V      691

Observer details:
691 Steward Observatory, Kitt Peak.  Observer D. Rabinowitz.
    Measured by J. V. Scotti.

Orbital elements:
1994 GV
Epoch 1994 Mar. 29.0 TT = JDT 2449440.5                 Marsden
M   2.89261              (2000.0)            P               Q
n   0.34533763     Peri.  154.08550     -0.99421377     -0.10738411
a   2.0120562      Node    19.75054     +0.09707912     -0.90922541
e   0.5192687      Incl.    0.46865     +0.04598511     -0.40221613
P   2.85           H    27.5          G   0.15
From 17 observations 1994 Apr. 13-14.

Ephemeris:
1994 GV                  a,e,i = 2.01, 0.52, 0                   q = 0.9673
Date    TT    R. A. (2000) Decl.     Delta      r     Elong.  Phase     V
1994 04 08    05 52.57   +24 33.6    0.021    0.994    70.3   108.6    23.2
1994 04 09    06 16.55   +24 14.0    0.017    0.997    74.8   104.3    22.4
1994 04 10    06 56.93   +23 08.5    0.012    1.000    83.1    96.2    21.4
1994 04 11    08 11.29   +19 22.8    0.0088   1.004    99.8    79.7    20.0
1994 04 12    10 18.84   +08 08.1    0.0069   1.007   131.6    48.1    18.5
1994 04 13    12 32.05   -06 50.5    0.0081   1.011   166.8    13.1    17.8
1994 04 14    13 52.80   -14 51.9    0.011    1.014   171.8     8.1    18.4
1994 04 15    14 36.29   -18 19.5    0.015    1.018   162.2    17.5    19.4
1994 04 16    15 01.65   -20 00.6    0.020    1.022   157.0    22.5    20.1
1994 04 17    15 17.84   -20 56.9    0.024    1.026   154.1    25.3    20.7
1994 04 18    15 28.93   -21 31.8    0.029    1.030   152.5    26.8    21.1
1994 04 19    15 36.93   -21 54.9    0.034    1.034   151.6    27.5    21.5
1994 04 20    15 42.92   -22 11.0    0.039    1.039   151.1    27.8    21.8
1994 04 21    15 47.54   -22 22.7    0.043    1.043   151.0    27.8    22.0
1994 04 22    15 51.18   -22 31.5    0.048    1.048   151.2    27.6    22.2
1994 04 23    15 54.10   -22 38.1    0.053    1.052   151.4    27.2    22.5
1994 04 24    15 56.46   -22 43.2    0.058    1.057   151.9    26.6    22.6
1994 04 25    15 58.39   -22 47.1    0.063    1.062   152.4    26.0    22.8
1994 04 26    15 59.97   -22 50.1    0.068    1.067   153.0    25.3    23.0
1994 04 27    16 01.27   -22 52.4    0.073    1.072   153.7    24.6    23.1
1994 04 28    16 02.34   -22 54.1    0.078    1.077   154.4    23.8    23.2

Brian G. Marsden                                              M.P.E.C. 1994-G06

Read MPEC 1994-G05 Read MPEC 1994-H01


Our Web policy. Index to the CBAT/MPC/ICQ pages.


Valid HTML 4.01!